Terminal Aerodrome Forecast
Issued by NWS Dallas/Fort Worth, TX

Home | Current Version | Previous Version | Text Only | Print | Product List | Glossary On
Versions: 1 2 3 4 5 6 7 8 9 10 11 12 13 14 15 16 17 18 19 20 21 22 23 24 25 26 27 28
000
FTUS44 KFWD 030200 AAB
TAFDFW
TAF AMD
KDFW 030259Z 0303/0406 16014KT P6SM SCT250
      TEMPO 0313/0315 BKN018=

USA.gov is the U.S. government's official web portal to all federal, state and local government web resources and services.